Wind_Speed
10 11 22 17 15 10 14 12 16 15 16 17 11 15 14 10 5 6 12 14 26 24 23 17 16 16 17 17 15 15 14 12 11 10 8 7 8 8 7 7 7 7 8
12 16 14 12 13 13 11 13 10 11 15 14 14 16 19 13 14 9 15 21 27 28 25 19 18 17 17 18 17 16 15 13 12 11 10 9 10 9 8 8 8 8 8
10 12 14 14 15 14 8 10 11 11 9 12 12 11 20 18 17 21 19 13 25 25 24 23 17 15 17 19 19 17 16 15 14 12 11 10 11 10 9 8 8 8 8
10 12 11 10 8 13 11 12 11 12 13 10 12 7 8 16 16 19 22 19 17 23 21 21 17 17 18 19 20 18 17 16 16 16 14 12 12 11 10 9 9 9 8
12 14 13 11 10 11 14 12 12 12 16 16 7 11 11 9 10 17 19 19 19 16 16 21 20 17 21 20 21 18 17 17 17 17 16 14 14 12 11 9 9 9 10
16 18 15 11 11 10 8 9 10 8 8 4 2 6 6 9 10 10 14 18 23 21 20 20 17 21 21 21 20 19 19 19 18 17 17 15 14 13 11 11 11 11 11
18 21 15 12 9 9 7 7 7 10 8 3 2 4 8 12 10 13 13 16 20 24 22 22 21 21 19 18 19 19 20 21 20 19 18 17 16 14 13 13 12 12 12
15 14 14 13 10 10 11 11 9 8 8 4 4 1 4 8 9 14 19 27 20 22 23 26 24 22 18 17 19 19 20 21 20 19 18 18 17 15 14 14 14 13 13
16 17 16 16 13 14 14 13 12 11 9 9 8 4 1 3 5 9 17 16 25 26 25 28 28 24 20 16 19 18 19 21 20 19 18 19 19 17 15 14 14 14 13
20 19 18 19 17 14 17 15 14 12 13 13 7 11 5 6 2 3 17 26 14 19 18 16 23 27 21 18 18 17 18 20 20 20 19 19 19 17 16 15 14 14 13
14 10 13 15 15 17 18 16 14 10 18 14 14 7 12 13 8 4 3 5 24 19 13 6 15 23 26 22 21 20 22 19 19 20 20 20 19 18 17 16 15 14 14
3 8 19 12 14 18 13 18 18 17 17 17 16 17 14 7 9 7 3 6 7 23 15 14 14 25 27 26 25 24 24 24 22 21 20 20 20 20 18 17 16 15 15
5 14 4 8 12 15 18 23 22 19 20 19 18 21 20 19 11 7 4 3 4 7 2 8 12 15 29 27 27 25 25 26 26 21 21 20 20 20 19 18 17 16 16
2 10 2 6 11 13 16 19 23 25 22 20 19 21 24 25 22 16 9 12 4 5 2 11 14 14 9 20 30 25 27 21 23 22 19 20 20 20 20 19 19 19 19
6 2 3 7 10 10 13 17 24 26 26 26 23 25 26 26 25 21 24 30 12 2 3 10 8 18 12 15 28 30 26 19 17 18 19 19 20 22 22 21 20 19 19
4 1 2 4 6 9 12 16 21 23 24 26 25 27 28 29 26 25 21 33 22 13 4 27 23 18 22 19 14 26 28 19 15 18 20 20 21 22 22 23 22 22 21
3 2 3 6 7 9 11 14 19 22 23 26 27 27 29 28 29 29 24 25 19 15 11 10 24 18 15 17 14 26 25 18 18 20 19 24 23 23 24 24 24 25 25
2 3 5 7 9 10 11 12 16 19 21 24 28 29 32 35 32 30 29 24 21 18 19 14 15 15 25 11 14 18 18 19 17 16 20 23 24 25 24 25 27 26 26
4 4 6 10 13 15 16 16 17 19 20 21 24 27 31 33 33 34 30 29 29 26 21 20 21 19 14 16 22 21 20 19 19 22 19 17 18 22 24 25 25 25 26
10 9 10 11 15 18 20 20 20 16 14 17 18 19 23 27 31 23 24 33 33 27 20 28 24 23 22 19 14 15 22 23 21 22 24 21 22 25 25 26 26 27 25
15 17 18 21 21 21 22 20 21 21 17 17 19 21 23 23 20 21 23 40 34 34 31 24 24 21 23 25 22 22 20 19 26 30 28 24 19 21 27 28 30 30 28
18 18 20 23 26 27 26 24 23 24 23 23 21 22 24 26 21 18 18 24 27 26 26 24 21 20 25 21 22 25 24 17 7 21 24 22 21 26 26 23 19 27 30
19 21 24 27 28 29 28 29 26 24 24 23 23 23 23 24 20 16 14 15 19 24 23 26 23 25 25 29 29 25 24 18 19 21 21 24 25 22 16 14 17 22 23
19 24 28 29 30 31 30 30 30 28 26 25 25 23 24 25 22 21 21 20 17 19 19 22 27 34 30 31 30 30 31 28 21 16 15 11 15 17 17 19 19 19 21
24 28 29 29 31 32 31 30 30 30 30 29 28 26 27 27 26 24 23 25 25 23 20 20 22 24 24 31 35 33 28 21 15 20 26 22 22 24 24 26 24 25 24
22 24 26 28 30 32 31 28 27 27 27 29 27 26 26 26 27 28 27 27 24 26 23 20 17 18 19 21 26 31 33 21 17 13 25 20 22 22 8 15 19 21 22
Wind_Direction
206 255 227 249 245 233 236 237 236 219 238 239 221 227 216 235 224 240 255 245 225 220 224 226 226 219 219 217 219 222 218 221 212 214 226 235 252 252 247 263 266 267 268
195 240 215 217 217 243 202 216 229 237 230 249 246 254 221 222 200 209 269 243 226 231 226 221 225 226 224 224 220 220 222 221 218 221 220 228 240 249 247 256 261 264 258
202 192 214 224 227 230 217 220 234 233 254 250 234 245 220 213 210 222 236 225 227 225 227 232 234 235 235 227 224 221 221 220 221 225 223 235 237 240 244 253 262 262 252
207 210 234 239 218 223 233 238 245 244 246 252 253 246 244 235 224 217 221 217 236 232 227 238 239 239 238 233 227 224 222 223 222 227 225 236 233 239 243 250 256 256 247
231 219 241 243 249 250 241 238 249 258 248 238 248 251 241 245 265 245 235 236 232 233 236 230 234 243 237 230 226 227 224 227 227 228 230 238 235 236 241 249 256 252 248
224 227 242 257 250 249 248 251 249 225 223 219 299 294 268 278 294 234 259 259 254 243 238 243 227 233 234 233 227 226 226 227 231 231 236 238 237 237 240 246 247 246 240
233 229 238 255 254 260 253 243 221 221 239 237 25 304 289 292 269 263 274 284 257 245 237 234 230 222 227 229 228 228 227 230 236 237 239 233 233 234 241 245 246 244 240
238 230 237 245 259 252 253 242 230 205 218 204 204 139 342 321 253 295 288 294 260 261 229 228 228 222 225 223 228 228 228 227 231 235 236 232 230 236 240 241 242 241 239
233 236 236 241 251 249 253 242 239 235 211 209 214 176 176 244 355 335 355 318 291 274 238 229 225 222 222 226 232 229 231 228 226 229 233 231 233 237 239 239 241 243 243
236 238 225 236 237 242 251 250 244 236 228 211 214 211 213 181 168 351 346 322 305 313 229 225 247 222 224 226 231 236 235 227 225 227 229 232 234 236 238 239 241 243 245
268 299 293 293 256 243 247 259 251 239 241 230 215 181 196 211 195 142 195 270 277 282 300 237 248 220 223 231 233 239 240 231 225 226 228 231 234 237 238 240 242 243 245
14 331 298 272 255 257 248 259 258 247 236 242 234 230 226 191 187 179 193 246 249 296 288 260 270 249 226 230 233 240 240 238 234 231 230 231 234 237 239 240 242 244 246
177 146 321 293 245 240 241 244 253 252 244 234 240 238 241 233 231 212 187 341 280 276 312 286 288 277 237 234 234 233 238 244 235 234 233 232 234 237 238 240 243 245 249
236 186 231 304 258 259 243 250 255 257 253 257 253 250 252 249 252 226 169 280 279 272 341 310 273 251 234 242 234 230 232 236 232 232 234 232 233 235 237 238 242 245 248
87 146 244 277 277 254 249 253 256 258 261 259 258 256 256 257 258 236 212 208 211 276 279 268 254 232 234 260 243 228 225 222 219 230 234 234 236 236 239 240 240 242 247
136 186 244 283 296 274 264 261 259 260 261 262 262 258 257 257 256 256 235 198 208 213 209 219 227 233 244 250 247 243 225 220 225 240 239 237 238 240 239 240 242 245 249
187 109 12 343 312 282 275 265 263 266 264 265 264 256 258 259 259 255 253 238 224 213 211 228 221 239 242 259 233 217 213 225 233 247 251 241 241 243 245 245 247 249 251
179 298 304 309 315 319 304 296 283 279 276 272 266 263 258 256 258 255 247 250 251 243 228 243 245 264 245 260 222 205 215 227 240 252 255 247 248 244 245 248 251 254 254
27 330 308 307 307 302 304 305 302 298 293 286 283 279 272 267 261 256 260 259 258 253 250 246 253 264 261 240 256 221 233 238 241 248 254 245 251 246 243 246 249 253 254
319 318 310 298 293 296 297 298 301 308 307 303 303 301 294 283 275 269 281 270 262 258 272 263 256 259 259 252 248 248 243 241 248 245 249 255 245 239 240 243 251 253 256
307 305 303 299 298 292 292 292 294 307 317 313 306 308 307 308 292 268 233 253 261 251 245 249 263 258 257 260 259 263 264 269 258 246 246 250 251 249 247 246 254 257 255
304 303 301 299 294 291 289 285 287 297 302 304 302 302 303 307 304 269 257 253 257 257 249 242 243 248 258 252 260 260 261 251 250 246 241 241 246 255 258 251 259 262 258
307 306 305 300 292 287 282 284 288 288 294 296 298 296 294 299 301 289 272 265 265 258 256 252 247 244 250 258 258 262 267 263 257 254 226 252 246 249 250 265 266 261 258
306 306 302 297 295 290 283 280 284 288 288 289 292 292 289 290 290 281 281 277 274 266 258 254 256 254 250 258 259 262 270 276 278 269 254 228 238 236 244 261 271 262 254
300 301 297 294 291 290 287 283 280 283 284 286 284 283 283 281 279 280 269 266 277 271 264 261 266 265 265 258 260 267 263 263 272 269 266 260 252 260 268 273 267 262 252
303 301 297 294 292 290 287 286 280 275 276 281 283 282 278 274 274 274 265 262 264 265 262 262 258 258 260 257 258 254 255 240 240 264 256 253 257 257 257 253 249 244 235
Height
844 841 845 850 852 847 849 849 852 852 851 853 851 850 853 853 854 856 859 861 864 861 860 858 859 860 861 862 863 863 864 865 865 866 866 867 868 869 870 870 870 871 872
846 846 846 848 848 848 846 847 848 850 849 849 851 851 852 853 856 856 854 856 858 859 858 856 856 857 859 860 861 861 861 862 862 863 864 865 867 868 868 868 869 869 870
842 844 846 848 848 848 845 846 847 848 847 848 849 848 850 851 855 854 855 856 855 855 856 857 855 855 857 859 859 859 858 858 860 861 861 862 864 865 866 866 866 866 867
841 843 845 846 846 846 843 843 846 845 846 846 846 847 847 849 850 850 849 850 849 850 852 854 854 853 853 855 857 857 856 856 858 858 859 860 861 862 863 863 864 864 865
838 842 843 843 844 843 842 842 842 842 843 843 844 845 844 844 844 845 846 846 844 844 847 849 850 851 851 850 852 853 854 855 856 856 857 857 859 859 860 860 861 862 863
834 837 839 840 841 841 841 842 841 839 840 840 840 841 840 838 839 839 840 842 842 842 843 844 846 848 848 848 848 848 850 852 853 854 855 855 856 857 858 858 859 860 861
832 834 836 838 838 839 840 841 839 839 838 839 838 837 834 833 834 835 837 839 839 840 840 841 843 843 844 845 844 845 846 848 850 852 853 853 854 855 856 856 857 857 858
832 834 835 834 836 837 839 842 840 835 837 838 838 839 838 831 829 831 834 835 836 836 836 838 839 840 840 840 841 841 843 844 846 848 850 851 852 852 852 853 854 854 855
826 827 829 830 831 834 836 838 839 837 837 837 837 839 843 840 835 831 833 833 835 833 831 832 833 835 836 837 838 839 840 841 841 843 846 848 849 849 849 850 851 852 853
820 823 823 825 828 830 833 834 834 834 835 834 835 836 836 834 836 838 828 830 831 832 827 824 830 830 832 833 835 836 836 837 838 839 841 843 846 847 847 847 848 849 851
828 830 831 825 825 827 829 830 831 833 832 831 833 833 832 831 831 835 839 833 827 825 823 823 827 828 828 829 831 832 833 834 835 836 838 840 842 843 844 844 845 846 847
821 818 819 815 820 824 825 827 828 828 830 829 829 828 826 825 826 832 832 828 828 820 818 819 823 827 825 826 826 827 829 830 831 832 833 835 837 840 841 841 842 843 844
817 819 815 814 815 815 820 823 822 822 823 824 823 824 823 822 823 826 826 827 830 823 815 815 816 818 820 821 822 824 825 825 827 828 830 831 833 836 837 838 839 839 840
816 817 816 814 810 809 811 813 816 817 819 820 819 818 818 818 821 826 828 826 831 821 812 811 812 813 814 817 818 819 820 821 823 826 827 828 829 831 833 833 835 835 836
814 815 816 814 812 809 810 812 812 813 815 816 815 815 815 815 817 820 820 821 826 819 817 810 812 807 810 813 814 815 815 818 820 822 822 824 825 827 829 830 830 831 831
812 813 813 812 809 808 809 809 809 809 809 810 810 809 810 811 813 813 816 816 818 814 816 812 808 809 810 811 814 813 811 813 814 815 817 819 821 822 823 825 826 827 827
809 810 810 808 808 809 808 807 807 806 806 806 804 804 804 806 805 806 807 807 808 808 807 807 808 809 809 807 805 807 808 810 811 812 813 815 816 818 819 820 821 822 822
808 808 808 808 807 807 805 804 804 803 803 800 799 799 798 800 801 800 801 799 797 801 804 804 803 802 802 802 801 803 805 805 807 808 808 809 811 812 813 814 816 816 817
807 807 806 804 804 803 803 802 801 799 798 796 795 793 791 791 792 795 798 800 796 794 797 799 798 797 797 797 797 798 800 801 801 802 803 804 805 806 807 808 809 811 811
803 804 804 803 802 801 799 797 796 794 792 791 790 788 786 784 785 787 793 796 796 794 793 797 794 793 794 794 794 795 795 796 796 797 798 799 799 800 801 803 804 805 807
799 799 799 797 796 795 793 791 789 788 787 786 784 782 780 778 781 781 783 781 787 788 791 790 789 790 788 788 787 788 790 791 790 791 792 794 795 796 796 797 797 799 800
794 794 793 791 790 788 786 785 784 782 781 780 779 777 774 772 773 776 777 776 777 777 778 780 781 781 782 782 782 783 784 786 786 784 785 787 789 789 790 791 790 792 793
789 789 788 786 784 783 781 779 778 777 776 775 774 771 768 766 765 767 769 770 770 769 769 772 774 774 776 777 778 779 780 781 780 781 780 778 780 783 784 784 785 785 787
786 784 782 779 777 775 775 773 772 770 768 767 767 765 762 760 760 760 760 761 761 761 762 764 764 766 769 771 772 774 775 773 777 777 777 776 776 778 780 780 780 780 781
781 779 776 773 770 767 766 766 765 762 760 758 758 758 757 755 754 755 754 754 754 754 755 756 756 757 759 762 764 767 768 770 769 769 771 772 772 774 774 773 774 774 775
775 773 770 768 765 762 760 758 757 756 754 751 750 750 750 749 748 748 748 748 748 748 750 751 752 752 752 752 755 757 759 761 762 761 761 766 766 767 768 765 765 768 769